Tracking 28125 objects as of 4-Oct-2023
HD Live streaming from Space Station
objects crossing your sky now

YZ-1S DEB

Track YZ-1S DEB now!
10-day predictions


NORAD ID: 43644
Int'l Code: 2018-077C
Perigee: 684.9 km
Apogee: 695.0 km
Inclination: 98.0 °
Period: 98.4 minutes
Semi major axis: 7060 km
RCS: Unknown
Launch date: October 9, 2018
Source: People's Republic of China (PRC)
Launch site: Jiuquan Satellite Launch Center, China (JSC)

Note: This is SATELLITE DEBRIS
Your satellite tracking list
Your tracking list is empty




NASA's NSSDC Master Catalog

Two Line Element Set (TLE):
1 43644U 18077C   23277.38376985  .00004273  00000-0  83829-3 0  9993
2 43644  98.0483 327.5194 0007126 328.1010  31.9760 14.63209644265847
Source of the keplerian elements: AFSPC